Tracking 28790 objects as of 19-Apr-2024
HD Live streaming from Space Station
objects crossing your sky now

COSMOS 1275 DEB

Track COSMOS 1275 DEB now!
10-day predictions


NORAD ID: 12696
Int'l Code: 1981-053AQ
Perigee: 960.0 km
Apogee: 1,182.5 km
Inclination: 83.1 °
Period: 106.5 minutes
Semi major axis: 7442 km
RCS: 0.0829 m2 (small)
Launch date: June 4, 1981
Source: Commonwealth of Independent States (former USSR) (CIS)
Launch site: PLESETSK MISSILE AND SPACE COMPLEX (PKMTR)

Note: This is SATELLITE DEBRIS
Your satellite tracking list
Your tracking list is empty




NASA's NSSDC Master Catalog

Two Line Element Set (TLE):
1 12696U 81053AQ  24109.96295593  .00000850  00000-0  11835-2 0  9998
2 12696  83.0680 100.2776 0149497 183.4277 243.2665 13.52211821100959
Source of the keplerian elements: AFSPC